DW0148 Weather Reports


time (UTC)temp
F
wind
direction
speed
knots
gust
knots
rain 1hr
in
rain 24hr
in
rain mn
in
humidity
%
barometer
mb
20260509004310 57 186 0.9 0.9 0.00 0.00 0.00 81 1011.2
20260509003808 57 185 0.0 0.9 0.00 0.00 0.00 80 1011.2
20260509003307 58 186 0.0 0.9 0.00 0.00 0.00 79 1011.2
20260509002805 58 187 0.0 0.9 0.00 0.00 0.00 79 1011.2
20260509002306 59 187 0.0 0.9 0.00 0.00 0.00 79 1011.2
20260509001659 60 187 0.0 0.9 0.00 0.00 0.00 77 1011.2
20260509001157 60 187 0.0 0.9 0.00 0.00 0.00 75 1011.5
20260509000656 61 187 0.0 0.0 0.00 0.00 0.00 73 1011.2
20260509000155 61 187 0.0 0.0 0.00 0.00 0.00 72 1011.2
20260508235653 62 187 0.0 0.9 0.00 0.00 0.00 70 1011.2
20260508235151 63 187 0.0 0.9 0.00 0.00 0.00 67 1011.2
20260508234649 64 187 0.0 0.9 0.00 0.00 0.00 64 1011.5
20260508234148 64 187 0.0 3.5 0.00 0.00 0.00 59 1011.5
20260508233647 65 224 0.9 3.5 0.00 0.00 0.00 56 1011.5
20260508233146 65 245 0.0 3.5 0.00 0.00 0.00 56 1011.5
20260508232644 66 205 1.7 3.5 0.00 0.00 0.00 56 1011.5
20260508232037 67 181 0.0 1.7 0.00 0.00 0.00 52 1011.5
20260508231505 67 273 0.0 6.1 0.00 0.00 0.00 53 1011.5
20260508231004 67 208 0.9 6.1 0.00 0.00 0.00 53 1011.5
20260508230502 68 232 0.9 6.1 0.00 0.00 0.00 50 1011.5
20260508230001 68 231 2.6 6.1 0.00 0.00 0.00 47 1011.5
20260508225459 68 235 0.9 4.3 0.00 0.00 0.00 47 1011.5
20260508224958 68 230 1.7 3.5 0.00 0.00 0.00 46 1011.5
20260508224457 68 230 1.7 3.5 0.00 0.00 0.00 47 1011.5
20260508223955 69 234 1.7 2.6 0.00 0.00 0.00 47 1011.5
20260508223454 69 262 0.9 1.7 0.00 0.00 0.00 51 1011.5
20260508222953 69 247 0.9 1.7 0.00 0.00 0.00 47 1011.5
20260508222450 69 259 0.0 1.7 0.00 0.00 0.00 48 1011.5
20260508221949 69 244 0.9 3.5 0.00 0.00 0.00 45 1011.5
20260508221448 69 266 0.9 3.5 0.00 0.00 0.00 48 1011.5
20260508220947 69 269 0.9 3.5 0.00 0.00 0.00 44 1011.5
20260508220413 70 228 1.7 3.5 0.00 0.00 0.00 43 1011.5
20260508215912 70 302 0.9 3.5 0.00 0.00 0.00 48 1011.5
20260508215410 70 299 0.9 3.5 0.00 0.00 0.00 45 1011.5
20260508214807 70 142 0.9 6.1 0.00 0.00 0.00 42 1011.9
20260508214233 70 270 1.7 7.0 0.00 0.00 0.00 40 1011.9
20260508213731 71 309 0.9 7.0 0.00 0.00 0.00 42 1011.9
20260508213229 71 264 1.7 6.1 0.00 0.00 0.00 40 1011.9
20260508212728 71 276 0.9 7.0 0.00 0.00 0.00 40 1011.9
20260508212226 71 220 3.5 7.0 0.00 0.00 0.00 39 1011.9
20260508211724 72 248 2.6 6.1 0.00 0.00 0.00 38 1011.9
20260508211223 72 219 1.7 6.1 0.00 0.00 0.00 39 1011.9
20260508210722 72 248 1.7 4.3 0.00 0.00 0.00 41 1012.2
20260508210148 72 108 2.6 5.2 0.00 0.00 0.00 46 1011.9
20260508205647 73 235 2.6 6.1 0.00 0.00 0.00 42 1011.9
20260508205146 73 199 1.7 6.1 0.00 0.00 0.00 43 1011.9
20260508204643 73 229 2.6 6.1 0.00 0.00 0.00 40 1011.9
20260508204142 73 252 1.7 6.1 0.00 0.00 0.00 43 1011.9
20260508203609 73 202 2.6 3.5 0.00 0.00 0.00 42 1011.9
20260508203107 72 81 0.9 3.5 0.00 0.00 0.00 43 1011.9
20260508202606 72 262 0.9 3.5 0.00 0.00 0.00 45 1012.2
20260508202033 71 187 0.9 3.5 0.00 0.00 0.00 43 1012.2
20260508201532 70 47 0.9 5.2 0.00 0.00 0.00 48 1012.2
20260508200959 70 12 1.7 5.2 0.00 0.00 0.00 45 1012.5
20260508200425 71 55 2.6 5.2 0.00 0.00 0.00 42 1012.2
20260508195923 71 227 0.9 3.5 0.00 0.00 0.00 44 1012.2
20260508195422 71 147 0.9 3.5 0.00 0.00 0.00 44 1012.2
20260508194920 71 333 1.7 3.5 0.00 0.00 0.00 47 1012.5
20260508194419 71 141 1.7 3.5 0.00 0.00 0.00 43 1012.5
20260508193916 71 61 0.9 3.5 0.00 0.00 0.00 44 1012.9
20260508193414 71 238 1.7 3.5 0.00 0.00 0.00 43 1012.9
20260508192913 70 193 0.9 3.5 0.00 0.00 0.00 44 1012.9
20260508192410 69 221 1.7 3.5 0.00 0.00 0.00 48 1013.2
20260508191837 69 229 0.9 4.3 0.00 0.00 0.00 48 1013.2
20260508191335 69 54 1.7 4.3 0.00 0.00 0.00 46 1013.2
20260508190833 69 13 0.9 4.3 0.00 0.00 0.00 52 1013.5
20260508190332 69 51 1.7 4.3 0.00 0.00 0.00 47 1013.5
20260508185831 69 85 1.7 5.2 0.00 0.00 0.00 47 1013.9
20260508185330 70 57 2.6 5.2 0.00 0.00 0.00 48 1013.9
20260508184828 70 70 0.9 3.5 0.00 0.00 0.00 48 1014.2
20260508184326 70 41 1.7 3.5 0.00 0.00 0.00 47 1014.2
20260508183823 70 260 0.9 3.5 0.00 0.00 0.00 51 1014.2
20260508183322 70 152 0.9 3.5 0.00 0.00 0.00 48 1014.2
20260508182820 70 243 1.7 2.6 0.00 0.00 0.00 47 1014.2
20260508182319 70 236 0.0 2.6 0.00 0.00 0.00 49 1014.2
20260508181643 70 12 0.9 2.6 0.00 0.00 0.00 52 1014.2
20260508181142 69 235 0.9 3.5 0.00 0.00 0.00 48 1014.6
20260508180639 70 54 1.7 3.5 0.00 0.00 0.00 46 1014.6
20260508180138 70 144 1.7 3.5 0.00 0.00 0.00 48 1014.6
20260508175637 70 188 1.7 3.5 0.00 0.00 0.00 49 1014.6
20260508175136 70 267 0.9 4.3 0.00 0.00 0.00 50 1014.6
20260508174633 70 47 0.9 4.3 0.00 0.00 0.00 49 1014.6
20260508174131 70 172 0.9 4.3 0.00 0.00 0.00 54 1014.6
20260508173630 69 196 1.7 4.3 0.00 0.00 0.00 51 1014.9
20260508173129 69 248 0.9 2.6 0.00 0.00 0.00 50 1014.9
20260508172628 68 170 0.9 2.6 0.00 0.00 0.00 48 1014.9
20260508172127 68 123 0.9 2.6 0.00 0.00 0.00 51 1014.9
20260508171624 68 272 0.9 2.6 0.00 0.00 0.00 54 1014.9
20260508171123 68 188 1.7 2.6 0.00 0.00 0.00 51 1015.2
20260508170621 68 143 1.7 2.6 0.00 0.00 0.00 52 1015.2
20260508170120 68 75 0.9 2.6 0.00 0.00 0.00 56 1015.6
20260508165619 68 271 0.9 2.6 0.00 0.00 0.00 53 1015.6
20260508165045 67 192 0.9 2.6 0.00 0.00 0.00 55 1015.6
20260508164543 67 257 0.9 4.3 0.00 0.00 0.00 58 1015.6
20260508164041 67 91 1.7 4.3 0.00 0.00 0.00 57 1015.9
20260508163539 67 280 0.9 4.3 0.00 0.00 0.00 56 1015.9
20260508163037 66 225 1.7 4.3 0.00 0.00 0.00 57 1016.3
20260508162536 66 165 1.7 3.5 0.00 0.00 0.00 59 1016.3
20260508162035 66 224 0.9 3.5 0.00 0.00 0.00 60 1016.3
20260508161503 65 41 0.9 3.5 0.00 0.00 0.00 62 1016.3
20260508161001 65 45 0.9 3.5 0.00 0.00 0.00 61 1016.3
20260508160459 64 269 1.7 4.3 0.00 0.00 0.00 64 1016.6
20260508155958 64 111 0.9 4.3 0.00 0.00 0.00 61 1016.6
20260508155456 64 176 1.7 5.2 0.00 0.00 0.00 64 1016.6
20260508154955 64 169 2.6 5.2 0.00 0.00 0.00 59 1016.6
20260508154452 65 194 2.6 4.3 0.00 0.00 0.00 61 1016.6
20260508153951 64 258 0.9 1.7 0.00 0.00 0.00 64 1016.6
20260508153419 64 335 0.9 3.5 0.00 0.00 0.00 68 1016.6
20260508152847 64 291 0.9 3.5 0.00 0.00 0.00 71 1016.6
20260508152346 64 199 0.9 3.5 0.00 0.00 0.00 68 1016.9
20260508151845 64 185 1.7 3.5 0.00 0.00 0.00 67 1016.9
20260508151311 64 303 0.9 2.6 0.00 0.00 0.00 71 1016.9
20260508150707 63 279 0.9 2.6 0.00 0.00 0.00 73 1016.9
20260508150206 63 208 1.7 2.6 0.00 0.00 0.00 71 1016.9
20260508145633 63 310 0.9 4.3 0.00 0.00 0.00 70 1016.9
20260508145129 63 15 0.9 4.3 0.00 0.00 0.00 73 1016.9
20260508144628 63 286 0.9 5.2 0.00 0.00 0.00 75 1016.9
20260508144126 63 226 0.9 5.2 0.00 0.00 0.00 75 1016.9
20260508143624 62 213 0.9 3.5 0.00 0.00 0.00 77 1017.3
20260508143052 62 210 1.7 2.6 0.00 0.00 0.00 75 1017.3
20260508142551 61 62 0.9 2.6 0.00 0.00 0.00 75 1017.3
20260508142018 61 164 0.9 2.6 0.00 0.00 0.00 73 1017.3
20260508141516 61 208 0.9 2.6 0.00 0.00 0.00 78 1017.3
20260508141014 60 196 1.7 2.6 0.00 0.00 0.00 79 1017.3
20260508140513 60 180 0.9 1.7 0.00 0.00 0.00 78 1017.3
20260508140012 59 210 0.0 0.9 0.00 0.00 0.00 83 1017.3
20260508135440 59 264 0.9 0.9 0.00 0.00 0.00 84 1017.3
20260508134939 58 225 0.9 0.9 0.00 0.00 0.00 85 1017.6
20260508134437 58 238 0.0 0.9 0.00 0.00 0.00 84 1017.6
20260508133935 57 241 0.9 0.9 0.00 0.00 0.00 87 1017.6
20260508133433 56 139 0.9 0.9 0.00 0.00 0.00 87 1017.6
20260508132932 55 56 0.0 0.9 0.00 0.00 0.00 91 1017.6
20260508132431 54 56 0.9 0.9 0.00 0.00 0.00 93 1017.6
20260508131930 53 56 0.0 0.9 0.00 0.00 0.00 95 1017.6
20260508131356 52 56 0.9 0.9 0.00 0.00 0.00 95 1017.6
20260508130824 51 83 0.9 0.9 0.00 0.00 0.00 95 1017.3
20260508130322 51 84 0.0 0.9 0.00 0.00 0.00 95 1017.3
20260508125820 50 86 0.0 0.9 0.00 0.00 0.00 96 1017.3
20260508125318 49 70 0.0 1.7 0.00 0.00 0.00 95 1017.3
20260508124816 49 70 0.9 1.7 0.00 0.00 0.00 95 1017.3
20260508124315 48 73 0.0 1.7 0.00 0.00 0.00 95 1017.3
20260508123814 47 57 0.9 1.7 0.00 0.00 0.00 95 1017.3
20260508123313 47 96 0.0 0.9 0.00 0.00 0.00 95 1016.9
20260508122812 46 96 0.9 0.9 0.00 0.00 0.00 95 1016.9
20260508122311 46 98 0.0 0.0 0.00 0.00 0.00 95 1017.3
20260508121810 45 97 0.0 0.0 0.00 0.00 0.00 95 1017.3
20260508121308 44 98 0.0 0.0 0.00 0.00 0.00 95 1017.3
20260508120807 44 97 0.0 0.0 0.00 0.00 0.00 95 1017.3
20260508120233 43 97 0.0 0.0 0.00 0.00 0.00 95 1016.9
20260508115732 43 97 0.0 0.9 0.00 0.00 0.00 95 1016.9
20260508115231 42 98 0.0 0.9 0.00 0.00 0.00 95 1016.9
20260508114658 42 98 0.0 0.9 0.00 0.00 0.00 95 1016.6
20260508114157 41 98 0.0 0.9 0.00 0.00 0.00 95 1016.6
20260508113623 41 97 0.0 0.0 0.00 0.00 0.00 95 1016.6
20260508113122 41 97 0.0 0.0 0.00 0.00 0.00 95 1016.6
20260508112619 41 97 0.0 0.0 0.00 0.00 0.00 95 1016.3
20260508112118 41 97 0.0 0.0 0.00 0.00 0.00 95 1016.3
20260508111617 41 97 0.0 0.0 0.00 0.00 0.00 95 1016.3
20260508111044 41 98 0.0 0.0 0.00 0.00 0.00 95 1016.3
20260508110542 41 97 0.0 0.0 0.00 0.00 0.00 95 1015.9
20260508110040 41 98 0.0 0.0 0.00 0.00 0.00 95 1015.9
20260508105436 41 97 0.0 0.0 0.00 0.00 0.00 95 1015.9
20260508104935 40 97 0.0 0.0 0.00 0.00 0.00 95 1015.9
20260508104433 41 98 0.0 0.0 0.00 0.00 0.00 95 1015.9
20260508103900 41 97 0.0 0.0 0.00 0.00 0.00 95 1015.6
20260508103359 41 98 0.0 0.0 0.00 0.00 0.00 95 1015.6
20260508102856 41 98 0.0 0.0 0.00 0.00 0.00 95 1015.6
20260508102355 41 98 0.0 0.0 0.00 0.00 0.00 95 1015.6
20260508101751 41 97 0.0 0.0 0.00 0.01 0.00 95 1015.2
20260508101218 41 98 0.0 0.0 0.00 0.01 0.00 95 1015.2
20260508100716 41 97 0.0 0.0 0.00 0.01 0.00 95 1015.2
20260508100213 41 98 0.0 0.0 0.00 0.01 0.00 95 1015.2
20260508095713 41 98 0.0 0.0 0.00 0.01 0.00 95 1015.2
20260508095211 41 98 0.0 0.0 0.00 0.01 0.00 95 1015.2
20260508094710 41 98 0.0 0.0 0.00 0.01 0.00 95 1015.2
20260508094209 41 98 0.0 0.0 0.00 0.01 0.00 95 1015.2
20260508093707 42 98 0.0 0.0 0.00 0.01 0.00 95 1015.2
20260508093133 41 98 0.0 0.0 0.00 0.01 0.00 95 1015.2
20260508092632 42 98 0.0 0.0 0.00 0.01 0.00 95 1015.2
20260508092058 42 98 0.0 0.0 0.00 0.01 0.00 95 1015.2
20260508091556 42 98 0.0 0.0 0.00 0.02 0.00 95 1015.2
20260508091055 42 98 0.0 0.0 0.00 0.02 0.00 95 1014.9
20260508090523 42 97 0.0 0.0 0.00 0.02 0.00 95 1015.2
20260508090021 42 98 0.0 0.0 0.00 0.02 0.00 95 1015.2
20260508085520 42 97 0.0 0.0 0.00 0.02 0.00 95 1015.2
20260508085019 42 97 0.0 0.0 0.00 0.02 0.00 95 1014.9
20260508084447 43 97 0.0 0.9 0.00 0.03 0.00 95 1014.9
20260508083943 43 98 0.0 0.9 0.00 0.03 0.00 95 1015.2
20260508083442 43 97 0.0 0.9 0.00 0.03 0.00 95 1015.2
20260508082939 43 98 0.9 0.9 0.00 0.04 0.00 95 1015.2
20260508082438 43 97 0.0 0.0 0.00 0.04 0.00 95 1015.2
20260508081937 43 98 0.0 0.0 0.00 0.04 0.00 95 1014.9
20260508081436 43 97 0.0 0.0 0.00 0.04 0.00 95 1014.9
20260508080935 43 97 0.0 0.0 0.00 0.04 0.00 95 1014.9
20260508080433 43 97 0.0 0.0 0.00 0.04 0.00 95 1014.9
20260508075757 43 97 0.0 0.0 0.00 0.04 0.00 95 1014.9
20260508075256 43 97 0.0 0.0 0.00 0.04 0.00 95 1014.9
20260508074754 44 98 0.0 0.0 0.00 0.04 0.00 95 1014.9
20260508074253 44 97 0.0 0.0 0.00 0.04 0.00 95 1014.9
20260508073752 44 97 0.0 0.0 0.00 0.04 0.00 95 1014.9
20260508073250 44 98 0.0 0.0 0.00 0.04 0.00 95 1014.9
20260508072748 44 97 0.0 0.0 0.00 0.04 0.00 95 1014.9
20260508072247 44 98 0.0 0.0 0.00 0.04 0.00 95 1014.9
20260508071745 44 97 0.0 0.0 0.00 0.04 0.00 95 1014.9
20260508071243 44 98 0.0 0.0 0.00 0.04 0.00 95 1014.9
20260508070740 44 98 0.0 0.0 0.00 0.04 0.00 95 1014.9
20260508070238 44 97 0.0 0.0 0.00 0.04 0.00 95 1014.9
20260508065737 44 98 0.0 0.0 0.00 0.04 0.00 95 1015.2
20260508065203 44 98 0.0 0.0 0.00 0.04 0.00 95 1014.9
20260508064702 44 97 0.0 0.0 0.00 0.04 0.00 95 1014.9
20260508064201 45 97 0.0 0.0 0.00 0.04 0.00 95 1014.9
20260508063700 45 98 0.0 0.0 0.00 0.04 0.00 95 1014.9
20260508063157 45 97 0.0 0.0 0.00 0.04 0.00 95 1014.9
20260508062656 45 97 0.0 0.0 0.00 0.04 0.00 95 1014.9
20260508062155 45 98 0.0 0.0 0.00 0.04 0.00 95 1014.9
20260508061654 45 98 0.0 0.9 0.00 0.04 0.00 95 1014.9
20260508061153 46 97 0.0 0.9 0.00 0.04 0.00 95 1015.2
20260508060651 46 98 0.0 0.9 0.00 0.04 0.00 95 1014.9
20260508060150 46 97 0.0 0.9 0.00 0.04 0.00 95 1014.9
20260508055648 46 98 0.0 0.0 0.00 0.04 0.00 95 1015.2
20260508055145 46 98 0.0 0.0 0.00 0.04 0.00 95 1014.9
20260508054644 46 97 0.0 0.0 0.00 0.04 0.00 95 1014.9
20260508054111 46 97 0.0 0.0 0.00 0.04 0.00 95 1014.9
20260508053610 46 97 0.0 0.9 0.00 0.04 0.00 95 1014.9
20260508053038 46 98 0.0 0.9 0.00 0.04 0.00 95 1014.9
20260508052536 46 97 0.0 0.9 0.00 0.04 0.00 95 1014.9
20260508052001 46 97 0.0 0.9 0.00 0.04 0.00 95 1014.9
20260508051500 46 97 0.0 0.0 0.00 0.04 0.00 95 1014.9
20260508050958 46 98 0.0 0.0 0.00 0.04 0.00 95 1014.9
20260508050456 46 97 0.0 0.0 0.00 0.04 0.00 95 1014.9
20260508045954 46 98 0.0 0.0 0.00 0.04 0.00 95 1014.9
20260508045452 46 98 0.0 0.0 0.00 0.04 0.00 95 1014.9
20260508044920 46 97 0.0 0.0 0.00 0.04 0.00 95 1014.9
20260508044419 46 98 0.0 0.0 0.00 0.04 0.00 95 1014.9
20260508043918 46 97 0.0 0.0 0.00 0.04 0.00 95 1014.9
20260508043416 47 98 0.0 0.0 0.00 0.04 0.00 95 1014.9
20260508042915 47 98 0.0 0.0 0.00 0.04 0.00 95 1014.9
20260508042414 47 98 0.0 0.0 0.00 0.04 0.00 95 1014.9
20260508041913 47 97 0.0 0.0 0.00 0.04 0.00 95 1014.9
20260508041411 47 97 0.0 0.0 0.00 0.04 0.00 95 1014.6
20260508040909 47 97 0.0 0.0 0.00 0.04 0.00 95 1014.6
20260508040408 47 97 0.0 0.0 0.00 0.04 0.00 95 1014.6
20260508035906 47 97 0.0 0.0 0.00 0.04 0.00 95 1014.6
20260508035405 48 98 0.0 0.0 0.00 0.04 0.00 95 1014.6
20260508034904 48 97 0.0 0.0 0.00 0.04 0.00 95 1014.6
20260508034403 48 97 0.0 0.0 0.00 0.04 0.00 95 1014.6
20260508033902 48 98 0.0 0.0 0.00 0.04 0.00 95 1014.6
20260508033359 48 98 0.0 0.0 0.00 0.04 0.00 95 1014.6
20260508032858 48 98 0.0 0.0 0.00 0.04 0.00 94 1014.6
20260508032357 48 97 0.0 0.0 0.00 0.04 0.00 94 1014.6
20260508031855 48 97 0.0 0.0 0.00 0.04 0.00 94 1014.6
20260508031323 48 98 0.0 0.0 0.00 0.04 0.00 94 1014.6
20260508030822 48 98 0.0 0.0 0.00 0.04 0.00 94 1014.6
20260508030319 48 97 0.0 0.0 0.00 0.04 0.00 94 1014.6
20260508025817 48 97 0.0 0.0 0.00 0.04 0.00 94 1014.2
20260508025315 48 97 0.0 0.0 0.00 0.04 0.00 94 1014.6
20260508024743 48 97 0.0 0.0 0.00 0.04 0.00 94 1014.6
20260508024240 49 98 0.0 0.0 0.00 0.04 0.00 94 1014.2
20260508023739 49 98 0.0 0.0 0.00 0.04 0.00 94 1014.2
20260508023238 49 97 0.0 0.0 0.00 0.04 0.00 94 1014.2
20260508022737 49 97 0.0 0.0 0.00 0.04 0.00 94 1014.2
20260508022234 49 97 0.0 0.0 0.00 0.04 0.00 93 1014.2
20260508021732 49 97 0.0 0.0 0.00 0.04 0.00 93 1014.2
20260508021129 49 97 0.0 0.0 0.00 0.04 0.00 93 1014.2
20260508020627 50 98 0.0 0.0 0.00 0.04 0.00 93 1014.2
20260508020055 50 97 0.0 0.0 0.00 0.04 0.00 92 1013.9
20260508015553 50 98 0.0 0.0 0.00 0.04 0.00 92 1013.9
20260508015052 50 97 0.0 0.0 0.00 0.04 0.00 92 1013.9
20260508014520 51 96 0.0 0.0 0.00 0.04 0.00 92 1013.5
20260508014017 51 98 0.0 0.0 0.00 0.04 0.00 92 1013.5
20260508013443 51 98 0.0 0.0 0.00 0.04 0.00 91 1013.5
20260508012808 52 97 0.0 0.0 0.00 0.04 0.00 91 1013.2
20260508012308 52 98 0.0 0.0 0.00 0.04 0.00 90 1013.2
20260508011734 52 97 0.0 0.0 0.00 0.04 0.00 90 1013.2
20260508011231 53 97 0.0 0.0 0.00 0.04 0.00 90 1013.2
20260508010730 53 97 0.0 0.0 0.00 0.04 0.00 89 1013.2
20260508010228 54 98 0.0 0.0 0.00 0.04 0.00 89 1012.9
20260508005726 54 98 0.0 0.0 0.00 0.04 0.00 88 1012.9
20260508005224 55 97 0.0 0.0 0.00 0.04 0.00 87 1012.9
20260508004722 55 97 0.0 0.0 0.00 0.04 0.00 87 1012.9